[[{"header":{"parameterUnit":"m.s-1","parameterCategory":1,"la1":30.2991,"la2":30.254,"lo1":-89.0895,"lo2":-89.0444,"dy":0.0017,"dx":0.0017,"nx":28,"ny":28,"refTime":"2025-02-12T03:00:00:Z","depth":0,"parameterNumber":2,"parameterNumberName":"U-component_of_WINDS"},"data":[0,0,0,0,0,0,0,0,0,0,0,0,0,0,0,0,0,0,0,0,0,0,0,0,0,0,0,0,0,0,0,0,0,0,0,0,0,0,0,0,0,0,0,0,0,0,0,0,0,0,0,0,0,0,0,0,0,0,-0.4966,-0.4966,0,-0.495,-0.495,-0.495,-0.4951,-0.4951,-0.4951,-0.4951,-0.4935,-0.4935,-0.4934,0,0,0,0,0,0,0,0,0,0,0,0,0,-0.4995,-0.4995,-0.4966,-0.4966,-0.4966,-0.4951,-0.495,-0.495,-0.4951,-0.4951,-0.4951,-0.4951,-0.4935,-0.4935,-0.4934,0,0,0,0,0,0,0,0,0,0,0,0,0,-0.4982,-0.4995,-0.4966,-0.4964,-0.4964,-0.4951,-0.495,-0.495,-0.4951,-0.4951,-0.4951,-0.4951,-0.4936,-0.4935,-0.4934,-0.4922,0,0,-0.4931,-0.4931,0,0,0,0,0,0,0,0,-0.4982,-0.498,-0.4965,-0.4964,-0.4964,-0.4953,-0.4955,-0.494,-0.495,-0.4956,-0.4951,-0.4952,-0.4941,-0.4939,-0.4936,-0.4921,-0.492,-0.4931,-0.493,-0.493,-0.493,0,0,0,0,0,0,0,-0.4983,-0.4981,-0.496,-0.4964,-0.4964,-0.4964,-0.4962,-0.4952,-0.4947,-0.4955,-0.4955,-0.4953,-0.4941,-0.4937,-0.4936,-0.492,-0.4931,-0.493,-0.493,-0.4929,-0.4893,-0.4893,0,0,0,0,0,0,-0.4985,-0.4982,-0.496,-0.4959,-0.4974,-0.4963,-0.4961,-0.4956,-0.4947,-0.4946,-0.4953,-0.4953,-0.4938,-0.4937,-0.4935,-0.4919,-0.493,-0.4929,-0.4929,-0.4893,-0.4893,-0.4893,0,0,0,0,0,0,-0.4985,-0.4983,-0.4961,-0.4971,-0.4968,-0.4962,-0.4956,-0.4956,-0.4952,-0.4945,-0.4944,-0.495,-0.4938,-0.4936,-0.4925,-0.4919,-0.4929,-0.4928,-0.4894,-0.4893,-0.4893,-0.4888,0,0,0,0,0,0,-0.4986,-0.4983,-0.4979,-0.4971,-0.4967,-0.4951,-0.4956,-0.4955,-0.495,-0.495,-0.4942,-0.4941,-0.4939,-0.4926,-0.4924,-0.4918,-0.4927,-0.4894,-0.4894,-0.4893,-0.4889,-0.4888,-0.4887,0,0,0,0,0,-0.4987,-0.4978,-0.4978,-0.4976,-0.4962,-0.4951,-0.4949,-0.4946,-0.495,-0.4945,-0.494,-0.4941,-0.492,-0.4925,-0.4922,-0.4916,-0.4895,-0.4894,-0.4893,-0.489,-0.4888,-0.4887,0,0,0,0,0,0,-0.4986,-0.4977,-0.4977,-0.4965,-0.4959,-0.4951,-0.4945,-0.4945,-0.4937,-0.4938,-0.4935,-0.4933,-0.4921,-0.4917,-0.4923,-0.4903,-0.4908,-0.4906,-0.4906,-0.4904,-0.4903,-0.4904,-0.4926,0,0,0,0,0,-0.4984,-0.4976,-0.4969,-0.4959,-0.4956,-0.4951,-0.4946,-0.4945,-0.4938,-0.4935,-0.493,-0.4923,-0.4915,-0.4909,-0.4901,-0.4888,-0.4886,-0.4883,-0.4881,-0.488,-0.4879,-0.4871,-0.4869,-0.489,-0.489,-0.489,0,0,-0.4981,-0.4975,-0.497,-0.4959,-0.4954,-0.4945,-0.4949,-0.494,-0.4933,-0.4934,-0.4922,-0.4918,-0.491,-0.4898,-0.4892,-0.4894,-0.4873,-0.4879,-0.4879,-0.4878,-0.487,-0.4868,-0.4866,-0.4889,-0.4889,-0.4889,0,0,-0.497,-0.4965,-0.4956,-0.495,-0.4942,-0.4939,-0.4937,-0.4928,-0.4926,-0.4914,-0.4914,-0.4906,-0.4892,-0.4886,-0.4881,-0.4867,-0.4867,-0.4865,-0.4858,-0.485,-0.4849,-0.4847,-0.4842,-0.484,-0.4863,-0.4863,-0.4863,0,-0.4967,-0.4954,-0.4951,-0.4942,-0.4937,-0.4936,-0.4926,-0.4921,-0.4911,-0.4907,-0.491,-0.4891,-0.4886,-0.4872,-0.4868,-0.4865,-0.4861,-0.4866,-0.4849,-0.4848,-0.4846,-0.4841,-0.4839,-0.4863,-0.4863,-0.4863,-0.4863,0,-0.495,-0.4941,-0.4935,-0.4924,-0.4918,-0.4909,-0.4904,-0.4898,-0.4897,-0.4893,-0.4881,-0.4875,-0.4865,-0.4861,-0.486,-0.4847,-0.4848,-0.485,-0.4855,-0.4844,-0.4839,-0.4837,-0.4863,-0.4863,-0.4863,-0.4863,0,0,-0.4939,-0.4926,-0.4924,-0.4919,-0.4909,-0.4902,-0.4892,-0.4883,-0.4877,-0.487,-0.4861,-0.4849,-0.485,-0.4845,-0.4843,-0.4836,-0.4824,-0.4839,-0.4839,-0.4836,-0.4808,-0.4806,-0.4804,-0.4824,-0.4824,-0.4824,-0.4809,0,-0.4927,-0.4909,-0.4906,-0.4891,-0.4882,-0.4881,-0.4872,-0.4865,-0.4861,-0.4853,-0.4849,-0.484,-0.4843,-0.4839,-0.4832,-0.4827,-0.4819,-0.4828,-0.4816,-0.4816,-0.4818,-0.4801,-0.48,-0.4786,-0.4807,-0.4806,-0.4806,0,-0.491,-0.4902,-0.4886,-0.4876,-0.4873,-0.4865,-0.4855,-0.4848,-0.4839,-0.4837,-0.483,-0.4829,-0.4818,-0.4823,-0.4808,-0.4815,-0.481,-0.4806,-0.4806,-0.4804,-0.481,-0.4799,-0.4781,-0.4779,-0.4803,-0.4803,-0.4803,0,-0.4903,-0.4888,-0.4876,-0.4872,-0.4861,-0.4855,-0.485,-0.4842,-0.4836,-0.4828,-0.4824,-0.4814,-0.4809,-0.4801,-0.4797,-0.4801,-0.4782,-0.4787,-0.4779,-0.4779,-0.4775,-0.4775,-0.4756,-0.4772,-0.4772,-0.4772,-0.4772,0,-0.489,-0.488,-0.4872,-0.4865,-0.4853,-0.4849,-0.4838,-0.4833,-0.4826,-0.4817,-0.4816,-0.4808,-0.4803,-0.4794,-0.4791,-0.4778,-0.4776,-0.4773,-0.4773,-0.4773,-0.4774,-0.477,-0.477,-0.4772,-0.4772,-0.4772,-0.4772,0,-0.488,-0.4874,-0.4861,-0.4851,-0.4849,-0.4841,-0.4832,-0.4825,-0.482,-0.4809,-0.4806,-0.48,-0.4789,-0.4784,-0.4771,-0.4769,-0.4754,-0.4754,-0.4757,-0.4757,-0.4749,-0.475,-0.4726,-0.4722,-0.4742,-0.4741,-0.4741,0,-0.4872,-0.4864,-0.4853,-0.4847,-0.4842,-0.4832,-0.4826,-0.4821,-0.4814,-0.4804,-0.4797,-0.4787,-0.4778,-0.4761,-0.4754,-0.4744,-0.4744,-0.4736,-0.4742,-0.4743,-0.4743,-0.4743,-0.4742,-0.4735,-0.4735,-0.4735,-0.4735,0,-0.4858,-0.4855,-0.4846,-0.4835,-0.4827,-0.4819,-0.4811,-0.4806,-0.48,-0.4792,-0.4781,-0.4774,-0.4761,-0.475,-0.4739,-0.4734,-0.4733,-0.4733,-0.473,-0.4731,-0.4732,-0.4731,-0.4754,-0.4733,-0.4733,-0.4733,-0.4733,-0.4734,-0.4848,-0.484,-0.4831,-0.4821,-0.4814,-0.4806,-0.4798,-0.4792,-0.4783,-0.4771,-0.4769,-0.4757,-0.4748,-0.4733,-0.4727,-0.4718,-0.4719,-0.4716,-0.4715,-0.4714,-0.4713,-0.4734,-0.4716,-0.4716,-0.4716,-0.4716,-0.4716,0,-0.4833,-0.4827,-0.4817,-0.4805,-0.4797,-0.4796,-0.4787,-0.478,-0.4769,-0.4761,-0.4752,-0.4738,-0.4728,-0.472,-0.4709,-0.4703,-0.4702,-0.47,-0.47,-0.4699,-0.4713,-0.4716,-0.47,-0.47,-0.47,-0.47,-0.47,-0.47,-0.4825,-0.4812,-0.4808,-0.4791,-0.4785,-0.4773,-0.4767,-0.476,-0.4753,-0.4738,-0.4729,-0.4724,-0.4715,-0.4703,-0.4693,-0.4691,-0.4687,-0.4685,-0.4683,-0.4696,-0.4698,-0.4699,-0.4702,-0.4684,-0.4684,-0.4669,-0.4669,-0.4669]},{"header":{"parameterUnit":"m.s-1","parameterCategory":1,"la1":30.2991,"la2":30.254,"lo1":-89.0895,"lo2":-89.0444,"dy":0.0017,"dx":0.0017,"nx":28,"ny":28,"refTime":"2025-02-12T03:00:00:Z","depth":0,"parameterNumber":3,"parameterNumberName":"V-component_of_WINDS"},"data":[0,0,0,0,0,0,0,0,0,0,0,0,0,0,0,0,0,0,0,0,0,0,0,0,0,0,0,0,0,0,0,0,0,0,0,0,0,0,0,0,0,0,0,0,0,0,0,0,0,0,0,0,0,0,0,0,0,0,6.1531,6.1534,0,6.1788,6.1791,6.1794,6.1828,6.1826,6.1824,6.1821,6.2087,6.2096,6.2105,0,0,0,0,0,0,0,0,0,0,0,0,0,6.1073,6.1081,6.1531,6.1534,6.1537,6.1788,6.1791,6.1795,6.1829,6.1826,6.1823,6.182,6.2084,6.2095,6.2106,0,0,0,0,0,0,0,0,0,0,0,0,0,6.1295,6.1084,6.153,6.1584,6.1592,6.1787,6.1791,6.1796,6.183,6.1826,6.1822,6.1819,6.208,6.2094,6.2107,6.2267,0,0,6.215,6.2156,0,0,0,0,0,0,0,0,6.1282,6.1312,6.1573,6.1581,6.159,6.1772,6.1727,6.1954,6.183,6.1739,6.1821,6.1817,6.1985,6.2007,6.2063,6.2279,6.2291,6.2151,6.216,6.2166,6.217,0,0,0,0,0,0,0,6.1267,6.1301,6.1633,6.1577,6.1587,6.1597,6.1625,6.177,6.188,6.1747,6.175,6.178,6.1989,6.2049,6.207,6.2295,6.2151,6.2163,6.2172,6.2178,6.2659,6.2663,0,0,0,0,0,0,6.1241,6.1288,6.1624,6.164,6.1424,6.1608,6.1639,6.1717,6.1878,6.1899,6.1783,6.1781,6.2027,6.2053,6.2079,6.228,6.2166,6.2179,6.2187,6.2654,6.266,6.2665,0,0,0,0,0,0,6.1231,6.1271,6.1614,6.1465,6.151,6.162,6.1708,6.1724,6.1785,6.1905,6.1925,6.1824,6.2026,6.2059,6.2221,6.2289,6.2185,6.2198,6.2649,6.2656,6.2662,6.268,0,0,0,0,0,0,6.1218,6.1267,6.1328,6.1466,6.1517,6.175,6.1712,6.1732,6.1809,6.1808,6.195,6.1969,6.2025,6.22,6.2235,6.2307,6.2209,6.2644,6.2652,6.266,6.2674,6.2686,6.2697,0,0,0,0,0,6.1201,6.1322,6.1331,6.1371,6.1595,6.1754,6.1784,6.1845,6.1814,6.1877,6.1955,6.1965,6.2275,6.2216,6.2256,6.2333,6.264,6.265,6.2659,6.2668,6.2684,6.2697,0,0,0,0,0,0,6.1189,6.1341,6.1352,6.1521,6.1625,6.176,6.1841,6.1858,6.1973,6.1968,6.204,6.2071,6.223,6.2297,6.2228,6.2498,6.2455,6.2473,6.2448,6.2464,6.2475,6.2457,6.2221,0,0,0,0,0,6.1206,6.1321,6.1448,6.1585,6.1636,6.1729,6.1801,6.1839,6.1949,6.1993,6.2083,6.219,6.2312,6.2391,6.251,6.2683,6.2716,6.2756,6.2767,6.2776,6.2792,6.2892,6.2912,6.2697,6.2697,6.2697,0,0,6.1242,6.1339,6.1408,6.1585,6.1669,6.1789,6.1766,6.1892,6.1983,6.2013,6.2172,6.2241,6.2366,6.2534,6.2613,6.2595,6.2859,6.2789,6.2795,6.2806,6.2904,6.2925,6.2943,6.2704,6.2702,6.2701,0,0,6.137,6.1453,6.1578,6.1664,6.1792,6.1854,6.1884,6.2017,6.2065,6.2225,6.2251,6.2359,6.2567,6.2656,6.2729,6.2892,6.2907,6.2929,6.299,6.3087,6.3104,6.312,6.3182,6.3202,6.2943,6.2944,6.2944,0,6.1399,6.1579,6.164,6.1768,6.1846,6.1878,6.2007,6.2087,6.2248,6.2302,6.2279,6.2543,6.2629,6.2821,6.2861,6.2917,6.2956,6.2914,6.3096,6.3113,6.3128,6.3188,6.3211,6.2946,6.2945,6.2945,6.2945,0,6.161,6.1735,6.1821,6.1976,6.2064,6.219,6.2273,6.2355,6.2386,6.245,6.2615,6.2719,6.2861,6.2909,6.294,6.3106,6.3092,6.3082,6.3041,6.315,6.3207,6.323,6.2949,6.2948,6.2947,6.2947,0,0,6.1738,6.1926,6.1957,6.203,6.2174,6.2273,6.2402,6.2541,6.2611,6.2721,6.2834,6.301,6.3002,6.3084,6.3126,6.321,6.3338,6.3191,6.3195,6.3218,6.3532,6.3541,6.3566,6.3347,6.3352,6.3356,6.3523,0,6.1885,6.2116,6.2176,6.2374,6.2492,6.2525,6.2638,6.274,6.2804,6.2915,6.2986,6.3111,6.309,6.314,6.3225,6.3304,6.3402,6.3292,6.3455,6.346,6.3426,6.3596,6.3605,6.3758,6.3545,6.3549,6.3552,0,6.2088,6.2203,6.2412,6.2545,6.2596,6.2697,6.2831,6.2935,6.3052,6.3093,6.3186,6.322,6.3358,6.3308,6.3501,6.3425,6.3495,6.3545,6.3552,6.3572,6.3515,6.3624,6.3807,6.3832,6.3587,6.3584,6.3582,0,6.2164,6.2371,6.2525,6.2585,6.2742,6.2813,6.2882,6.2995,6.3076,6.3193,6.3247,6.3377,6.345,6.3552,6.3621,6.3578,6.381,6.3765,6.3851,6.3849,6.39,6.3897,6.4101,6.394,6.3939,6.3939,6.3938,0,6.2324,6.2452,6.2562,6.2656,6.2801,6.2869,6.3011,6.3081,6.3182,6.3292,6.3328,6.3431,6.3515,6.363,6.3685,6.3839,6.387,6.3909,6.3923,6.3908,6.3903,6.3957,6.395,6.3945,6.3944,6.3943,6.3941,0,6.2435,6.2513,6.2683,6.2818,6.2856,6.2957,6.3074,6.3168,6.3232,6.3372,6.3408,6.3511,6.3649,6.3727,6.39,6.3937,6.4109,6.4116,6.407,6.4077,6.4159,6.4152,6.4408,6.4447,6.4256,6.4257,6.4259,0,6.2534,6.2633,6.278,6.2856,6.2926,6.3048,6.3131,6.3202,6.3287,6.343,6.3508,6.3647,6.3762,6.398,6.4072,6.4205,6.4217,6.4298,6.4238,6.4221,6.4223,6.4218,6.423,6.4309,6.4311,6.4312,6.4313,0,6.2702,6.2736,6.2854,6.2986,6.3084,6.3192,6.3299,6.3359,6.3449,6.3543,6.3684,6.3773,6.395,6.4089,6.423,6.4303,6.4325,6.4331,6.4359,6.4347,6.4317,6.4338,6.4102,6.4326,6.4325,6.4324,6.4323,6.4323,6.2813,6.2904,6.3022,6.3153,6.3241,6.334,6.3436,6.3514,6.3632,6.3782,6.3817,6.3966,6.4084,6.4275,6.4352,6.4471,6.4457,6.4495,6.4506,6.4516,6.452,6.4295,6.4496,6.4496,6.4495,6.4495,6.4495,0,6.2986,6.3064,6.3183,6.3332,6.3436,6.3446,6.3565,6.3652,6.3783,6.389,6.4003,6.4167,6.4302,6.4404,6.4543,6.4619,6.4633,6.4654,6.4651,6.4668,6.4523,6.4487,6.4641,6.4641,6.4641,6.4641,6.4641,6.4641,6.3088,6.3244,6.3293,6.3494,6.3571,6.3717,6.3785,6.3878,6.3965,6.4146,6.4259,6.4324,6.443,6.4578,6.4704,6.473,6.4782,6.4802,6.483,6.4693,6.4678,6.4663,6.463,6.4811,6.4811,6.4966,6.4968,6.4969]}]]